Regional Weather Roundup
Issued by NWS

Home | Current Version | Previous Version | Text Only | Print | Product List | Glossary On
Versions: 1 2 3 4 5 6 7 8 9 10 11 12 13 14 15 16 17 18 19 20 21 22 23 24 25 26 27 28 29 30 31 32 33 34 35 36 37 38 39 40 41 42 43 44 45 46 47 48 49 50
000
ASUS46 KSEW 190210
RWRWA

WASHINGTON REGIONAL WEATHER ROUNDUP
NATIONAL WEATHER SERVICE SEATTLE WA
600 PM PST THU DEC 18 2014

NOTE:"FAIR" INDICATES FEW OR NO CLOUDS BELOW 12,000 FEET WITH NO
SIGNIFICANT WEATHER AND/OR OBSTRUCTIONS TO VISIBILITY.

WAZ505-507>509-190300-
SEATTLE, TACOMA, EVERETT, AND VICINITY

CITY           SKY/WX    TMP DP  RH WIND       PRES   REMARKS
EVERETT        LGT RAIN  47  43  86 SE9       29.76F
BOEING FIELD   LGT RAIN  50  42  74 SE10      29.77F
RENTON         LGT RAIN  48  43  82 E6        29.76F
SEATAC AIRPORT LGT RAIN  47  41  80 E12       29.76F
JBLM-MCCHORD   LGT RAIN  50  48  93 SE13      29.75F
PUYALLUP       NOT AVBL
JBLM-FT LEWIS  DRIZZLE   49  49  98 E7        29.74F
TACOMA NARROWS LGT RAIN  50  45  83 S7        29.75F
$$

WAZ001-503-506-510-514-515-190300-
NORTH INTERIOR

CITY           SKY/WX    TMP DP  RH WIND       PRES   REMARKS
BELLINGHAM     LGT RAIN  52  42  69 SE12G24   29.70F
FRIDAY HARBOR  CLOUDY    50  44  80 SE15G22   29.68F
EASTSOUND      LGT RAIN  52  45  76 S8G22     29.65F
PORT ANGELES   CLOUDY    45  43  93 CALM      29.64F
NAS WHIDBEY    CLOUDY    53  43  68 SE25G36   29.71F
BURLINGTON     CLOUDY    54  45  71 SE15G25   29.74F
$$

WAZ020-022-039-040-504-511-512-190300-
SOUTHWEST INTERIOR

CITY           SKY/WX    TMP DP  RH WIND       PRES   REMARKS
SHELTON        CLOUDY    48  46  93 NE6       29.71F
OLYMPIA        CLOUDY    50  46  86 S8        29.74F
CHEHALIS       LGT RAIN  52  48  87 S10       29.75S
KELSO          CLOUDY    46  43  87 S10G16    29.82S
VANCOUVER      CLOUDY    47  41  80 SE9       29.82F
SCAPPOOSE, OR  CLOUDY    47  43  86 SW6       29.81F
PORTLAND, OR   CLOUDY    46  42  86 E18       29.82F
$$

WAZ021-516-517-190300-
WASHINGTON COAST

CITY           SKY/WX    TMP DP  RH WIND       PRES   REMARKS
FORKS          RAIN      49  48  97 SE14G22   29.58F FOG
HOQUIAM        RAIN      50  49  96 E15       29.68F FOG
ASTORIA, OR    RAIN      52  49  89 SE10      29.69F
$$

WAZ019-023-024-040-518-519-190300-
CASCADE MOUNTAINS AND COLUMBIA GORGE

CITY           SKY/WX    TMP DP  RH WIND       PRES   REMARKS
STAMPEDE PASS  NOT AVBL
TROUTDALE, OR  CLOUDY    47  39  74 E21G31    29.82F
THE DALLES, OR CLOUDY    41  37  86 E3        29.95F
$$

WAZ026-027-041>044-520-521-190300-
EAST SLOPES

CITY           SKY/WX    TMP DP  RH WIND       PRES   REMARKS
OMAK           CLOUDY    36  35  96 CALM      29.96F FOG
WENATCHEE      CLOUDY    38  36  92 E3        29.95S FOG
ELLENSBURG     CLOUDY    38  34  85 SE5       29.91F FOG
YAKIMA         CLOUDY    41  37  86 CALM      29.94F
$$

WAZ028-034-035-190300-
COLUMBIA BASIN

CITY           SKY/WX    TMP DP  RH WIND       PRES   REMARKS
EPHRATA        CLOUDY    38  37  97 N6        29.94F FOG
MOSES LAKE     CLOUDY    39  37  92 N3        29.95F
PASCO          CLOUDY    39  38  96 NW5       29.97F
HERMISTON, OR  FOG       39  37  92 W6        29.95R VSB 3/4
$$

WAZ036>038-190300-
NORTHEAST WASHINGTON

CITY           SKY/WX    TMP DP  RH WIND       PRES   REMARKS
SPOKANE GEIGER FOG       37  37 100 NE3       29.95S VSB 1
SPOKANE FELTS  CLOUDY    39  37  92 CALM      29.97S
FAIRCHILD AFB  FOG       36  36 100 NE3       29.94F VSB 1/4
COEURDALENE,ID CLOUDY    37  36  93 CALM      29.96S
DEER PARK      CLOUDY    36  35  96 N3        29.97S
$$

WAZ029>033-190300-
SOUTHEAST WASHINGTON

CITY           SKY/WX    TMP DP  RH WIND       PRES   REMARKS
PULLMAN        CLOUDY    40  36  86 E12       29.98S
LEWISTON, ID   MOCLDY    44  36  73 SE7       29.98F
WALLA WALLA    FOG       39  38  96 SW5       29.95R VSB 1/4
PENDLETON, OR  CLOUDY    42  38  85 E7        29.91F
$$



USA.gov is the U.S. government's official web portal to all federal, state and local government web resources and services.